When you browse on this site, cookies collect data to enhance your experience and personalize the content and advertising you see.
Visit our Privacy Policy to learn more. By continuing to use the site, you agree to this use of cookies and data.
  • In Austria
  • List of Countries
  • For 7 days
  • Water Temperature
  • Weather Map
  • News
  • Weather Widgets
  • user-avatar
    Login

    Hourly Weather Peschaniki

    Today, 3 June, Wednesday

    Time Temperature Precipitation Wind Pressure Humidity
    00:00 +7°C° 0 mm 3 mps 740 mmHg 96%
    01:00 +7°C° 0 mm 3 mps 740 mmHg 97%
    02:00 +5°C° 0 mm 3 mps 741 mmHg 98%
    03:00 +7°C° 0 mm 3 mps 741 mmHg 98%
    04:00 +7°C° 0 mm 3 mps 740 mmHg 97%
    05:00 +7°C° 0 mm 3 mps 740 mmHg 97%
    06:00 +7°C° 0.1 mm 3 mps 740 mmHg 96%
    07:00 +8°C° 0.1 mm 3 mps 740 mmHg 95%
    08:00 +8°C° 0 mm 3 mps 740 mmHg 94%
    09:00 +9°C° 0.5 mm 3 mps 740 mmHg 91%
    10:00 +10°C° 0.5 mm 4 mps 740 mmHg 88%
    11:00 +11°C° 0.5 mm 4 mps 740 mmHg 85%
    12:00 +12°C° 0.5 mm 4 mps 740 mmHg 82%
    13:00 +13°C° 0.5 mm 3 mps 740 mmHg 79%
    14:00 +13°C° 0 mm 3 mps 740 mmHg 78%
    15:00 +13°C° 0.4 mm 3 mps 740 mmHg 78%
    16:00 +13°C° 0.4 mm 3 mps 740 mmHg 79%
    17:00 +13°C° 0.4 mm 3 mps 739 mmHg 80%
    18:00 +12°C° 0.2 mm 3 mps 739 mmHg 84%
    19:00 +12°C° 0.2 mm 2 mps 739 mmHg 88%
    20:00 +10°C° 0.2 mm 2 mps 739 mmHg 91%
    21:00 +9°C° 0 mm 2 mps 739 mmHg 93%
    22:00 +8°C° 0 mm 2 mps 739 mmHg 94%
    23:00 +7°C° 0 mm 2 mps 739 mmHg 95%

    Tomorrow, 4 June, Thursday

    Time Temperature Precipitation Wind Pressure Humidity
    00:00 +7°C° 0 mm 2 mps 739 mmHg 96%
    01:00 +6°C° 0 mm 2 mps 739 mmHg 97%
    02:00 +6°C° 0 mm 2 mps 739 mmHg 97%
    03:00 +6°C° 0 mm 2 mps 739 mmHg 98%
    04:00 +6°C° 0 mm 2 mps 739 mmHg 98%
    05:00 +6°C° 0 mm 2 mps 739 mmHg 98%
    06:00 +8°C° 0 mm 2 mps 739 mmHg 95%
    07:00 +9°C° 0 mm 2 mps 739 mmHg 92%
    08:00 +11°C° 0 mm 3 mps 739 mmHg 88%
    09:00 +12°C° 0.4 mm 3 mps 739 mmHg 85%
    10:00 +13°C° 0.4 mm 3 mps 739 mmHg 81%
    11:00 +14°C° 0.4 mm 3 mps 739 mmHg 78%
    12:00 +15°C° 0.8 mm 4 mps 739 mmHg 77%
    13:00 +15°C° 0.8 mm 4 mps 739 mmHg 76%
    14:00 +17°C° 0.8 mm 4 mps 739 mmHg 75%
    15:00 +15°C° 0.4 mm 4 mps 738 mmHg 75%
    16:00 +15°C° 0.4 mm 4 mps 738 mmHg 76%
    17:00 +15°C° 0.4 mm 4 mps 738 mmHg 76%
    18:00 +14°C° 0.3 mm 3 mps 738 mmHg 80%
    19:00 +13°C° 0.3 mm 3 mps 738 mmHg 85%
    20:00 +13°C° 0.3 mm 2 mps 738 mmHg 89%
    21:00 +12°C° 0 mm 2 mps 738 mmHg 90%
    22:00 +10°C° 0 mm 2 mps 738 mmHg 92%
    23:00 +9°C° 0 mm 2 mps 739 mmHg 93%

    Day after tomorrow, 5 June, Friday

    Time Temperature Precipitation Wind Pressure Humidity
    00:00 +9°C° 0 mm 2 mps 739 mmHg 93%
    01:00 +9°C° 0 mm 2 mps 738 mmHg 94%
    02:00 +10°C° 0 mm 1 mps 738 mmHg 94%
    03:00 +9°C° 0 mm 2 mps 738 mmHg 95%
    04:00 +9°C° 0 mm 2 mps 738 mmHg 95%
    05:00 +9°C° 0 mm 2 mps 738 mmHg 96%
    06:00 +12°C° 0 mm 2 mps 738 mmHg 92%
    07:00 +14°C° 0 mm 2 mps 738 mmHg 89%
    08:00 +16°C° 0 mm 2 mps 738 mmHg 85%
    09:00 +17°C° 0.1 mm 3 mps 739 mmHg 82%
    10:00 +19°C° 0.1 mm 4 mps 739 mmHg 79%
    11:00 +20°C° 0.1 mm 4 mps 739 mmHg 76%
    12:00 +20°C° 0.4 mm 5 mps 739 mmHg 78%
    13:00 +19°C° 0.4 mm 5 mps 739 mmHg 81%
    14:00 +19°C° 0.4 mm 5 mps 739 mmHg 83%
    15:00 +20°C° 0 mm 5 mps 739 mmHg 80%
    16:00 +20°C° 0 mm 4 mps 739 mmHg 76%
    17:00 +21°C° 0 mm 4 mps 739 mmHg 73%
    18:00 +20°C° 0.5 mm 4 mps 739 mmHg 79%
    19:00 +19°C° 0.5 mm 4 mps 739 mmHg 84%
    20:00 +18°C° 0.5 mm 3 mps 739 mmHg 90%
    21:00 +17°C° 0.1 mm 3 mps 740 mmHg 92%
    22:00 +17°C° 0.1 mm 3 mps 740 mmHg 94%
    23:00 +16°C° 0.1 mm 3 mps 740 mmHg 95%

    6 June, Saturday

    Time Temperature Precipitation Wind Pressure Humidity
    00:00 +16°C° 0 mm 3 mps 740 mmHg 95%
    01:00 +14°C° 0 mm 3 mps 740 mmHg 95%
    02:00 +14°C° 0 mm 3 mps 740 mmHg 95%
    03:00 +14°C° 0 mm 3 mps 740 mmHg 94%
    04:00 +14°C° 0 mm 3 mps 740 mmHg 94%
    05:00 +16°C° 0 mm 3 mps 740 mmHg 93%
    06:00 +16°C° 0 mm 3 mps 741 mmHg 92%
    07:00 +17°C° 0 mm 3 mps 741 mmHg 90%
    08:00 +17°C° 0 mm 4 mps 742 mmHg 88%
    09:00 +17°C° 0.2 mm 3 mps 742 mmHg 90%
    10:00 +17°C° 0.2 mm 3 mps 743 mmHg 92%
    11:00 +17°C° 0.2 mm 3 mps 743 mmHg 94%
    12:00 +19°C° 0.1 mm 3 mps 743 mmHg 88%
    13:00 +20°C° 0.1 mm 3 mps 744 mmHg 81%
    14:00 +22°C° 0.1 mm 3 mps 744 mmHg 75%
    15:00 +22°C° 0.6 mm 3 mps 744 mmHg 77%
    16:00 +21°C° 0.6 mm 3 mps 744 mmHg 78%
    17:00 +21°C° 0.6 mm 2 mps 745 mmHg 80%
    18:00 +20°C° 0.1 mm 2 mps 745 mmHg 82%
    19:00 +20°C° 0.1 mm 1 mps 745 mmHg 85%
    20:00 +19°C° 0.1 mm 1 mps 746 mmHg 87%
    21:00 +18°C° 0 mm 1 mps 746 mmHg 88%
    22:00 +16°C° 0 mm 1 mps 746 mmHg 89%
    23:00 +14°C° 0 mm 0 mps 747 mmHg 89%

    7 June, Sunday

    Time Temperature Precipitation Wind Pressure Humidity
    00:00 +15°C° 0 mm 1 mps 747 mmHg 89%
    01:00 +15°C° 0 mm 1 mps 747 mmHg 89%
    02:00 +15°C° 0 mm 1 mps 747 mmHg 89%
    03:00 +15°C° 0 mm 1 mps 747 mmHg 90%
    04:00 +15°C° 0 mm 2 mps 748 mmHg 91%
    05:00 +16°C° 0 mm 2 mps 748 mmHg 92%
    06:00 +17°C° 0 mm 2 mps 748 mmHg 90%
    07:00 +18°C° 0 mm 2 mps 748 mmHg 89%
    08:00 +19°C° 0 mm 3 mps 748 mmHg 87%
    09:00 +21°C° 0 mm 4 mps 748 mmHg 81%
    10:00 +22°C° 0 mm 4 mps 748 mmHg 74%
    11:00 +25°C° 0 mm 5 mps 748 mmHg 68%
    12:00 +26°C° 0.6 mm 5 mps 747 mmHg 66%
    13:00 +27°C° 0.6 mm 5 mps 747 mmHg 63%
    14:00 +28°C° 0.6 mm 5 mps 747 mmHg 60%
    15:00 +27°C° 0.4 mm 5 mps 747 mmHg 63%
    16:00 +27°C° 0.4 mm 4 mps 746 mmHg 65%
    17:00 +26°C° 0.4 mm 4 mps 746 mmHg 68%
    18:00 +25°C° 0 mm 4 mps 746 mmHg 72%
    19:00 +22°C° 0 mm 3 mps 746 mmHg 76%
    20:00 +20°C° 0 mm 3 mps 746 mmHg 80%
    21:00 +20°C° 0 mm 3 mps 746 mmHg 82%
    22:00 +19°C° 0 mm 2 mps 747 mmHg 85%
    23:00 +18°C° 0 mm 2 mps 747 mmHg 87%

    8 June, Monday

    Time Temperature Precipitation Wind Pressure Humidity
    00:00 +18°C° 0 mm 2 mps 747 mmHg 89%
    01:00 +17°C° 0 mm 2 mps 747 mmHg 90%
    02:00 +17°C° 0 mm 2 mps 747 mmHg 91%
    03:00 +17°C° 0 mm 2 mps 746 mmHg 92%
    04:00 +17°C° 0 mm 2 mps 746 mmHg 93%
    05:00 +17°C° 0 mm 2 mps 746 mmHg 94%
    06:00 +18°C° 0.1 mm 2 mps 746 mmHg 89%
    07:00 +20°C° 0.1 mm 3 mps 746 mmHg 84%
    08:00 +22°C° 0.1 mm 3 mps 746 mmHg 79%
    09:00 +23°C° 0.8 mm 4 mps 746 mmHg 75%
    10:00 +26°C° 0.8 mm 4 mps 746 mmHg 70%
    11:00 +27°C° 0.8 mm 4 mps 746 mmHg 66%
    12:00 +27°C° 1 mm 4 mps 745 mmHg 68%
    13:00 +27°C° 1 mm 4 mps 745 mmHg 70%
    14:00 +27°C° 1 mm 4 mps 745 mmHg 72%
    15:00 +26°C° 1.4 mm 4 mps 745 mmHg 76%
    16:00 +25°C° 1.4 mm 3 mps 744 mmHg 79%
    17:00 +25°C° 1.4 mm 3 mps 744 mmHg 83%
    18:00 +24°C° 0.3 mm 3 mps 744 mmHg 85%
    19:00 +23°C° 0.3 mm 2 mps 744 mmHg 88%
    20:00 +21°C° 0.3 mm 2 mps 745 mmHg 91%
    21:00 +20°C° 0.3 mm 2 mps 745 mmHg 92%
    22:00 +19°C° 0.3 mm 3 mps 745 mmHg 94%
    23:00 +19°C° 0.3 mm 3 mps 745 mmHg 95%
    Show more